DECAYED

STARLINK-4650, 53611 (Decayed)

Orbit data source: Space-Track

STARLINK-4650, 53611 was a payload satellite owned by SpaceX/Seattle (US) in LEO that was launched on Sun, 28 Aug 2022 UTC via an FALCON 9 launch vehicle from the Air Force Eastern Test Range (AFETR). Payload-class satellites include a variety of spacecraft equipped with specific instruments for various scientific and technological missions. These include communications satellites like Starlink; space stations such as the ISS; scientific satellites like the Hubble; Earth observation satellites from companies like Planet Labs, Umbra, and HawkEye 360; GPS; miniature CubeSats for education and research; and military/defense satellites.

Not visible in the next 10 days
Identifier
53611, 2022-104Z
Orbit
Decayed
Country
Flag of USUS
Related business
Manufacturer
SpaceX/Seattle
Mission
Decayed Commercial Communications
Bus & Motor
STARLINK, Unknown motor
Mass
300 kg wet, ~290 kg dry
Launch date (UTC)
2022-08-28 (4 years ago)
Launch vehicle
FALCON 9
Launch site
Air Force Eastern Test Range (AFETR)
Object type
Payload
Rocket body
Debris
Shape & HBR
Box + 1 Pan, 10.1 m
Radar Cross Section
13.562 m², Large (>1 m²)

Expand to show TLE details & history
Last TLE update: 10 months ago

TLE from 10 months ago
0 STARLINK-4650
1 53611U 22104Z   25227.26161906  .16392320  13267-4  32393-3 0  9996
2 53611  53.1516 339.8795 0055899 357.4792  82.0473 16.39243652165317
Epoch: 2025-08-15T06:16Z
TLE epoch observation values (Epoch: 2025-08-15T06:16:43.886Z)
Latitude
52.19922°
Longitude
-4.36424°
Altitude
169.223 km
Speed
7.814 km/s
True Right ascension
03h 34m 55s
True Declination
52° 01' 03"
Sunlit
Object was in daylight at epoch
Visualization orbit readout
Latitude
Unknown
Longitude
Unknown
Altitude
Unknown
Speed
Unknown
Apparent Right ascension
Unknown
Apparent Declination
Unknown
Sunlit
N/A
Visualization observer readout
Local Sidereal Time
21:42:30
Azimuth
Unknown
Elevation
Unknown
Doppler factor
Unknown
Orbital elements
Apogee altitude
204.678 km
Perigee altitude
131.492 km
Semi-major axis
6,546.222 km
Eccentricity
0.00559
Inclination
53.1516°
RAAN
339.8795°
Arg. of periapsis
357.4792°
True anomaly
82.6823°
Mean anomaly
82.0473°
Eccentric anomaly
82.36474°
Mean motion
4.09786 °/min
Orbital period
87.85 mins
BSTAR
0.00032393
Loading maneuver chart data...
Computing Atmospheric mass density...
Loading historical data...
Loading historical data...
Loading historical data...
Loading historical data...
Loading historical data...
Loading historical data...
Loading historical data...

Documentation

Showing up to 5 results
|